Find Starlink 4420

NORAD ID: 53654 Int'l Des: 2022-105 Owner: SPXS Country: US Constellation: starlink operational
LEOCIRCULARRETROGRADESSO

リアルタイム位置

3D地球を読み込み中...

Starlink 4420について

説明を読み込み中...

次回通過

Passes for default location (London). Set your location on the main map for personalized predictions.

高度履歴

Loading altitude history...

軌道要素

1 53654U 22105G 26126.15869706 .00003733 00000-0 26284-3 0 9993
2 53654 97.5352 7.7342 0002382 66.6190 293.5287 15.05631435201947
Epoch: May 6, 2026 • Age: 12 hours

現在のステータス

高度 561.6 km
速度 7.59 km/s
衛星直下点 82.44°N, 169.16°W
打ち上げ日 Aug 31, 2022
運用期間 3.6 years
タイプ internet

技術仕様

分類 Payload
質量 300.00 kg
乾燥質量 290.00 kg
総質量 300.00 kg
長さ 0.20 m
直径 2.80 m
スパン 9.00 m
形状 Box + pan
製造者 SPXS
バスタイプ Starlink
フェーズステータス In Orbit
所有者/国 SPXS/US

Most Searched